Tracking 23114 objects as of 14-May-2021
HD Live streaming from Space Station
objects crossing your sky now

ARIANE 5 R/B

Track ARIANE 5 R/B now!


NORAD ID: 40273
Int'l Code: 2014-062C
Perigee: 246.3 km
Apogee: 33,880.3 km
Inclination: 5.8 °
Period: 595.0 minutes
Semi major axis: 23434 km
RCS: Unknown
Launch date: October 16, 2014
Source: France (FR)
Launch site: FRENCH GUIANA (FRGUI)

Note: This is a ROCKET BODY
aabbcc
Your satellite tracking list
Your tracking list is empty




NASA's NSSDC Master Catalog

Two Line Element Set (TLE):
1 40273U 14062C   21133.79750745  .00000976  00000-0  23430-3 0  9990
2 40273   5.7960 211.3055 7176218  83.5471 346.5007  2.42005005 56826
Source of the keplerian elements: AFSPC